Regional Weather Roundup
Issued by NWS Kansas City/Pleasant Hill, MO

Home | Current Version | Previous Version | Text Only | Print | Product List | Glossary On
Versions: 1 2 3 4 5 6 7 8 9 10 11 12 13 14 15 16 17 18 19 20 21 22 23 24 25 26 27 28 29 30 31 32 33 34 35 36 37 38 39 40 41 42 43 44 45 46 47 48 49 50
184
ASUS43 KEAX 161010
RWREAX

WEATHER ROUNDUP FOR EASTERN KANSAS AND NORTHWEST MISSOURI
NATIONAL WEATHER SERVICE KANSAS CITY/PLEASANT HILL MO
500 AM CDT WED AUG 16 2017

KSZ040-057-103>105-MOZ028-029-037-043-161100-
...KANSAS CITY METROPOLITAN AREA...

CITY           SKY/WX    TMP DP  RH WIND       PRES   REMARKS
K.C. INTL      CLOUDY    75  72  90 SE7       29.82F
K.C. DOWNTOWN  CLOUDY    78  73  84 SE6       29.81F
LEES SUMMIT    PTCLDY    75  73  93 S9        29.84F
OLATHE - IXD   CLOUDY    75  71  87 S8        29.83F
OLATHE - OJC   CLOUDY    74  72  93 S12       29.83F
LAWRENCE       CLOUDY    75  73  93 SE6       29.80F

$$

MOZ001>008-011>017-020>025-030>033-038>040-044>046-053-054-161100-
...NORTHERN AND CENTRAL MISSOURI...

CITY           SKY/WX    TMP DP  RH WIND       PRES   REMARKS
ST. JOSEPH     PTCLDY    75  72  90 SE8       29.80F
MOSBY          MOSUNNY   73  70  88 CALM      29.83F
WARRENSBURG    CLOUDY    73  70  88 S6        29.84S
WHITEMAN AFB   MOCLDY    73  73 100 S8        29.84F
CLINTON        LGT RAIN  73  72  94 S8        29.88R
SEDALIA        CLOUDY    75  73  93 S8        29.87F
WARSAW         NOT AVBL
CHILLICOTHE      N/A     73  70  90 SE6       29.85F
KIRKSVILLE     CLEAR     70  68  93 E5        29.89F

$$

MOZ041-047>049-056>058-063>065-088>090-097-161100-
...EASTERN AND SOUTHERN MISSOURI...

CITY           SKY/WX    TMP DP  RH WIND       PRES   REMARKS
ST. LOUIS INTL TSTM      77  73  87 SE7       29.92F
SPIRIT OF STL  CLOUDY    74  73  97 CALM      29.90F
COLUMBIA       CLOUDY    73  71  93 E5        29.88F
JEFFERSON CITY CLOUDY    75  74  96 E6        29.86F
ROLLA          LGT RAIN  72  71  97 S7        29.91F
OSAGE BEACH    CLOUDY    71  68  90 CALM      29.89F
SPRINGFIELD    CLOUDY    71  71 100 SE9       29.89F
BRANSON        CLOUDY    70  70 100 CALM      29.94S FOG
JOPLIN         CLOUDY    75  72  90 S8        29.85F
WEST PLAINS    MOCLDY    74  73  97 SE3       29.95F FOG

$$

IAZ060-094-KSZ022-034>040-054-083-096-NEZ052-066-093-161100-
...KANSAS...SOUTHEAST NEBRASKA AND IOWA...

CITY           SKY/WX    TMP DP  RH WIND       PRES   REMARKS
TOPEKA         CLOUDY    76  72  87 VRB6      29.79F
MANHATTAN      CLEAR     73  70  90 S5        29.76F
EMPORIA        CLOUDY    71  70  96 SE9       29.80F
CHANUTE        PTCLDY    71  69  93 SE7       29.83F
WICHITA        PTCLDY    73  71  93 S14       29.77F
OMAHA          CLOUDY    73  67  81 SE7       29.79F
LINCOLN        TSTM      73  70  90 SE10      29.75F FOG
FALLS CITY     CLEAR     73  70  90 S9        29.77F
LAMONI         CLOUDY    68  68 100 E3        29.86F
DES MOINES     PTCLDY    70  69  97 E9        29.85F

$$





USA.gov is the U.S. government's official web portal to all federal, state and local government web resources and services.